Regional Weather Roundup
Issued by NWS Bismarck, ND

Home | Current Version | Previous Version | Text Only | Print | Product List | Glossary On
Versions: 1 2 3 4 5 6 7 8 9 10 11 12 13 14 15 16 17 18 19 20 21 22 23 24 25 26 27 28 29 30 31 32 33 34 35 36 37 38 39 40 41 42 43 44 45 46 47 48 49 50
000
ASUS43 KBIS 242110
RWRBIS

NWR BROADCAST TEXT
NATIONAL WEATHER SERVICE BISMARCK ND
400 PM CDT THU JUL 24 2014

NOTE: "FAIR" INDICATES FEW OR NO CLOUDS BELOW 12,000 FEET WITH NO
SIGNIFICANT WEATHER AND/OR OBSTRUCTIONS TO VISIBILITY.


CITY           SKY/WX    TMP DP  RH WIND       PRES   REMARKS
WILLISTON      MOSUNNY   83  63  50 S8        29.71R
MINOT          PTSUNNY   76  63  64 SW15G22   29.88R
MINOT AFB      PTSUNNY   76  69  79 SW13      29.85R
BISMARCK       CLOUDY    79  64  60 SE17      29.79F
DICKINSON      CLOUDY    79  67  66 NE12      29.79F
GARRISON         N/A     72  65  78 W15       29.89R
HETTINGER ARPT SUNNY     86  66  51 SE14      29.76F
JAMESTOWN      SUNNY     78  63  59 S22G30    29.83F
CARRINGTON     FAIR      75  68  78 S20G30    29.83F
CROSBY         FAIR      79  70  73 SE9       29.74F
HARVEY         FAIR      75  64  69 S16G23    29.82S
HAZEN          MOCLDY    75  64  69 S3        29.86R
LINTON         MOCLDY    77  66  69 SE17G25   29.79F
MANDAN         CLOUDY    77  64  65 SE18G24   29.80S
RUGBY          FAIR      75  64  69 S13       29.83R
STANLEY        FAIR      73  68  83 SE18G26   29.73F
TIOGA          FAIR      77  68  73 SE12G21   29.78R
WATFORD CITY   FAIR      77  66  69 SE21G26   29.68R
$$

CITY           SKY/WX    TMP DP  RH WIND       PRES   REMARKS
GRAND FORKS    MOSUNNY   76  58  53 S13G23    29.89R
GRAND FORKS AF SUNNY     77  61  58 S15       29.90R
DEVILS LAKE    SUNNY     75  61  60 SE16G23   29.84F
FARGO          PTSUNNY   75  62  64 S10G23    29.88F
CANDO          FAIR      75  63  64 SE16G23   29.86F
CAVALIER       CLOUDY    73  63  68 S5        29.90F
GRAFTON        FAIR      75  63  64 SE14      29.90S
GWINNER        PTCLDY    75  64  69 SE23G32   29.88R
LANGDON        MOCLDY    75  61  60 SE14G21   29.90F
ROLLA          FAIR      73  63  68 S20       29.88S
WALHALLA         N/A     72  68  88 E9          N/A
$$

CITY           SKY/WX    TMP DP  RH WIND       PRES   REMARKS
ABERDEEN       MOSUNNY   79  61  53 SE24G38   29.83F
MOBRIDGE       MOSUNNY   85  68  56 SE21G30   29.74F
BUFFALO          N/A     88  68  51 SE9       29.70F HX  91
RAPID CITY     MOSUNNY   92  67  43 VRB5      29.77F HX  95
GLASGOW        SUNNY     91  57  31 S10G21    29.66F
SIDNEY         MOSUNNY   86  66  51 S12       29.72S
WOLF POINT     SUNNY     91  61  36 S8G20     29.67F HX  91
GLENDIVE       SUNNY     91  64  40 SE13      29.71F HX  93
MILES CITY     SUNNY     98  54  22 VRB5      29.68F HX  96
BAKER          SUNNY     90  63  40 VRB5      29.76F HX  91
$$

CITY           SKY/WX    TMP DP  RH WIND       PRES   REMARKS
BILLINGS       MOSUNNY   99  35  10 W24G39    29.76F HX  93
GREAT FALLS    FAIR      74  27  17 W31G43    29.93F
REGINA         PTSUNNY   81  63  54 SW8       29.73F
ESTEVAN        MOSUNNY   81  66  61 SE12      29.75F
$$



USA.gov is the U.S. government's official web portal to all federal, state and local government web resources and services.